KB9LNR Weather Reports


Display with metric or nautical units.
time (UTC)temp
F
wind
direction
speed
MPH
gust
MPH
rain 1hr
in
rain 24hr
in
rain mn
in
humidity
%
barometer
mb
20260906120131 70 0 1.0 4.0 0.00 0.00 0.00 91 1017.5
20260906114611 70 78 1.0 3.0 0.00 0.00 0.00 91 1017.2
20260906113109 70 34 0.0 3.0 0.00 0.00 0.00 90 1017.0
20260906111607 70 0 1.0 3.0 0.00 0.00 0.00 90 1016.6
20260906110118 71 0 0.0 2.0 0.00 0.00 0.00 89 1016.8
20260906104605 71 32 0.0 2.0 0.00 0.00 0.00 90 1016.6
20260906103103 71 0 1.0 3.0 0.00 0.00 0.00 89 1016.4
20260906101603 71 0 0.0 2.0 0.00 0.00 0.00 89 1016.3
20260906100110 71 42 0.0 3.0 0.00 0.00 0.00 89 1016.1
20260906094606 70 302 0.0 2.0 0.00 0.00 0.00 89 1016.2
20260906093118 70 0 0.0 2.0 0.00 0.00 0.00 89 1016.2
20260906091605 70 0 0.0 2.0 0.00 0.00 0.00 90 1016.1
20260906090130 70 0 0.0 2.0 0.00 0.00 0.00 90 1016.1
20260906084607 70 0 0.0 2.0 0.00 0.00 0.00 90 1016.2
20260906083106 70 0 0.0 2.0 0.00 0.00 0.00 90 1016.3
20260906081605 70 0 0.0 2.0 0.00 0.00 0.00 90 1016.5
20260906080105 70 0 0.0 2.0 0.00 0.00 0.00 90 1016.4
20260906074607 70 0 0.0 0.0 0.00 0.00 0.00 90 1016.3
20260906073105 70 0 0.0 0.0 0.00 0.00 0.00 90 1016.5
20260906071611 70 0 0.0 0.0 0.00 0.00 0.00 89 1016.6
20260906070111 70 0 0.0 1.0 0.00 0.00 0.00 89 1016.6
20260906064604 71 0 0.0 0.0 0.00 0.00 0.00 88 1016.6
20260906063106 71 0 0.0 2.0 0.00 0.00 0.00 88 1016.6
20260906061610 71 0 0.0 1.0 0.00 0.00 0.00 89 1016.7
20260906060111 71 0 1.0 4.0 0.00 0.00 0.00 89 1016.7
20260906054607 71 0 1.0 4.0 0.00 0.00 0.00 89 1016.7
20260906053104 71 69 1.0 3.0 0.00 0.00 0.00 89 1016.7
20260906051606 71 0 0.0 3.0 0.00 0.00 0.00 89 1016.6
20260906050133 72 69 1.0 5.0 0.00 0.00 0.00 88 1016.4
20260906044602 72 64 2.0 4.0 0.00 0.00 0.00 88 1016.0
20260906043111 72 67 1.0 3.0 0.00 0.00 0.00 87 1015.8
20260906041605 73 71 1.0 5.0 0.00 0.00 0.00 86 1015.5
20260906040117 73 74 2.0 4.0 0.00 0.00 0.00 85 1015.5
20260906034606 74 74 2.0 6.0 0.00 0.00 0.00 85 1015.5
20260906033108 75 73 1.0 4.0 0.00 0.00 0.00 85 1015.5
20260906031605 75 44 0.0 3.0 0.00 0.00 0.00 85 1015.2
20260906030135 75 44 0.0 3.0 0.00 0.00 0.00 85 1015.2
20260906024609 75 44 1.0 3.0 0.00 0.00 0.00 84 1015.2
20260906023127 76 44 0.0 2.0 0.00 0.00 0.00 84 1015.2
20260906021616 76 0 0.0 1.0 0.00 0.00 0.00 83 1015.1
20260906020107 77 44 0.0 2.0 0.00 0.00 0.00 82 1015.1
20260906014628 77 33 0.0 3.0 0.00 0.00 0.00 82 1014.9
20260906013104 78 60 0.0 3.0 0.00 0.00 0.00 81 1014.6
20260906011607 79 0 1.0 4.0 0.00 0.00 0.00 81 1014.6
20260906010109 79 58 0.0 4.0 0.00 0.00 0.00 80 1014.4
20260906004606 80 19 0.0 4.0 0.00 0.00 0.00 79 1014.3
20260906003110 81 49 1.0 5.0 0.00 0.00 0.00 78 1014.1
20260906001606 82 41 0.0 3.0 0.00 0.00 0.00 76 1014.0
20260906000109 83 69 0.0 2.0 0.00 0.00 0.00 76 1013.9
20260905234618 84 0 0.0 4.0 0.00 0.00 0.00 75 1014.0
20260905233106 84 32 1.0 4.0 0.00 0.00 0.00 75 1013.8
20260905231607 85 13 0.0 3.0 0.00 0.00 0.00 74 1013.4
20260905230110 86 0 1.0 3.0 0.00 0.00 0.00 74 1013.4
20260905224610 87 11 1.0 4.0 0.00 0.00 0.00 72 1013.5
20260905223107 88 0 0.0 4.0 0.00 0.00 0.00 72 1013.4
20260905221605 88 0 0.0 3.0 0.00 0.00 0.00 70 1013.4
20260905220108 88 0 0.0 3.0 0.00 0.00 0.00 68 1013.3
20260905214613 89 320 0.0 3.0 0.00 0.00 0.00 69 1013.3
20260905213117 89 12 1.0 4.0 0.00 0.00 0.00 68 1013.2
20260905211607 90 65 0.0 3.0 0.00 0.00 0.00 68 1013.2
20260905210109 90 321 1.0 4.0 0.00 0.00 0.00 67 1013.2
20260905204605 90 0 0.0 4.0 0.00 0.00 0.00 68 1013.3
20260905203108 89 0 1.0 4.0 0.00 0.00 0.00 68 1013.4
20260905201608 90 333 0.0 3.0 0.00 0.00 0.00 69 1013.4
20260905200106 90 329 0.0 3.0 0.00 0.00 0.00 69 1013.5
20260905194606 90 311 1.0 3.0 0.00 0.00 0.00 69 1013.6
20260905193106 91 0 0.0 3.0 0.00 0.00 0.00 69 1013.6
20260905191615 90 0 0.0 3.0 0.00 0.00 0.00 69 1013.8
20260905190105 90 337 1.0 3.0 0.00 0.00 0.00 69 1013.9
20260905184621 90 0 0.0 3.0 0.00 0.00 0.00 69 1014.0
20260905183106 90 305 1.0 4.0 0.00 0.00 0.00 68 1014.1
20260905181610 90 0 1.0 4.0 0.00 0.00 0.00 69 1014.2
20260905180111 90 328 0.0 3.0 0.00 0.00 0.00 69 1014.2
20260905174617 89 0 0.0 3.0 0.00 0.00 0.00 70 1014.3
20260905173113 89 325 1.0 3.0 0.00 0.00 0.00 71 1014.4
20260905171605 89 5 0.0 5.0 0.00 0.00 0.00 72 1014.4
20260905170106 89 94 0.0 4.0 0.00 0.00 0.00 72 1014.5
20260905164605 88 95 1.0 4.0 0.00 0.00 0.00 73 1014.6
20260905163108 87 71 1.0 4.0 0.00 0.00 0.00 75 1014.7
20260905161608 86 0 0.0 2.0 0.00 0.00 0.00 76 1014.7
20260905160113 86 355 0.0 2.0 0.00 0.00 0.00 75 1014.6
20260905154607 85 0 1.0 3.0 0.00 0.00 0.00 75 1014.6
20260905153118 85 0 1.0 3.0 0.00 0.00 0.00 75 1014.5
20260905151609 84 0 0.0 3.0 0.00 0.00 0.00 76 1014.4
20260905150108 84 10 0.0 3.0 0.00 0.00 0.00 75 1014.4
20260905144611 84 317 0.0 3.0 0.00 0.00 0.00 76 1014.4
20260905143112 83 0 0.0 2.0 0.00 0.00 0.00 78 1014.1
20260905141615 82 155 0.0 2.0 0.00 0.00 0.00 78 1014.1
20260905140109 81 155 0.0 2.0 0.00 0.00 0.00 79 1014.0
20260905134615 80 0 0.0 0.0 0.00 0.00 0.00 84 1014.0
20260905133105 79 0 0.0 0.0 0.00 0.00 0.00 86 1013.8
20260905131608 78 0 0.0 0.0 0.00 0.00 0.00 87 1014.1
20260905130117 77 0 0.0 0.0 0.00 0.00 0.00 88 1014.0
20260905124609 77 0 0.0 0.0 0.00 0.00 0.00 90 1013.6
20260905123109 77 0 0.0 0.0 0.00 0.00 0.00 90 1013.5
20260905121605 77 0 0.0 0.0 0.00 0.00 0.00 90 1013.4